User: anonymous   Login
Location: �chenoz-la-M�line
(47.6009°N, 6.1354°E)
Time: 00:08:41
(UTC+00:00)
Language:

Meteor 1-16 Rocket - Orbit

View from above orbital plane
View from above orbital plane
View from above satellite
View from above satellite

Ground track
Ground track

The orbit data is extracted from the following two-line orbital elements,

1  7210U 74011B   21110.53576081  .00000224  00000-0  10996-3 0  9999
2  7210  81.2333 113.4627 0080517 347.9283  11.9957 14.13106421428169
Epoch (UTC): 20 April 2021 12:51:29
Eccentricity: 0.0080517
inclination: 81.2333°
perigee height: 790 km
apogee height: 907 km
right ascension of ascending node: 113.4627°
argument of perigee: 347.9283°
revolutions per day: 14.13106421
mean anomaly at epoch: 11.9957°
orbit number at epoch: 42816

The dashed part of the orbit path shows where the satellite is in the earth's shadow,  

DLR